Home > Weather > Kuching > Past weeks

Flag for Malaysia Weather for the Past 2 Weeks in Kuching, Malaysia

Now
81 °F

Thunderstorms. Broken clouds.


Feels Like: 86 °F
Forecast: 76 / 80 °F
Wind: 8 mph from West

Location: Kuching Airport

Current Time: Feb 9, 2016 at 6:17:01 PM

Latest Report: Feb 9, 2016 at 5:30 PM


Visibility: 3 mi

Pressure: 29.74 "Hg

Humidity: 84%

Dew point: 75 °F

Location of KuchingLocation

Historic Weather in Kuching — Graph

°F

Kuching Temperature Yesterday

Maximum temperature yesterday: 81 °F (at 2:30 PM)
Minimum temperature yesterday: 77 °F (at 12:00 AM)
Average temperature yesterday: 79 °F

High & Low Weather Summary for the Past Weeks

 TemperatureHumidityPressure
High90 °F (Jan 27, 12:00 PM)100% (Jan 26, 1:00 AM)29.95 "Hg (Jan 26, 1:00 AM)
Low75 °F (Jan 26, 4:00 AM)63% (Jan 27, 12:00 PM)29.71 "Hg (Feb 5, 3:00 PM)
Average80 °F89%29.83 "Hg
* Reported Jan 25 4:00 PM — Feb 9 4:00 PM, Kuching, Weather by CustomWeather, © 2016

Note: Actual official high and low records may vary slightly from our data, if they occured in-between our weather recording intervals... More about our weather records

Advertising

Kuching Weather History for the Previous 24 Hours

 ConditionsComfort  
Time TempWeatherWind HumidityBarometerVisibility
4:00 PM
Tue, Feb 9
84 °FScattered showers. Broken clouds.10 mph84%29.71 "Hg4 mi
3:30 PM84 °FRain showers. Broken clouds.8 mph84%29.71 "Hg3 mi
2:30 PM90 °FBroken clouds.3 mph71%29.74 "HgN/A
2:00 PM88 °FBroken clouds.6 mph75%29.77 "HgN/A
1:30 PM88 °FBroken clouds.7 mph75%29.77 "HgN/A
12:30 PM86 °FBroken clouds.6 mph75%29.83 "HgN/A
11:30 AM86 °FBroken clouds.3 mph79%29.83 "HgN/A
11:00 AM84 °FBroken clouds.2 mph84%29.86 "HgN/A
10:30 AM82 °FBroken clouds.2 mph84%29.86 "HgN/A
10:00 AM81 °FBroken clouds.2 mph89%29.86 "HgN/A
9:30 AM81 °FBroken clouds.1 mph89%29.86 "HgN/A
9:00 AM79 °FBroken clouds.1 mph94%29.86 "HgN/A
8:30 AM79 °FBroken clouds.No wind94%29.86 "HgN/A
8:00 AM77 °FBroken clouds.1 mph100%29.83 "HgN/A
7:30 AM77 °FBroken clouds.No wind94%29.83 "HgN/A
7:00 AM75 °FBroken clouds.1 mph100%29.83 "HgN/A
6:00 AM75 °FLight rain. Mostly cloudy.5 mph100%29.80 "Hg3 mi
5:30 AM75 °FRain. Mostly cloudy.2 mph100%29.80 "Hg2 mi
5:00 AM75 °FRain. Mostly cloudy.2 mph100%29.80 "Hg1 mi
4:30 AM77 °FRain. Mostly cloudy.5 mph94%29.80 "Hg2 mi
4:00 AM75 °FHeavy rain. Mostly cloudy.3 mph100%29.77 "Hg1 mi
3:30 AM75 °FHeavy rain. Mostly cloudy.7 mph100%29.80 "Hg1 mi
3:00 AM77 °FHeavy rain. Mostly cloudy.9 mph100%29.80 "Hg1 mi
2:30 AM77 °FLight rain. Partly cloudy.9 mph94%29.80 "Hg3 mi
2:00 AM77 °FLight rain. Partly cloudy.6 mph100%29.80 "Hg3 mi
1:30 AM77 °FLight rain. Partly cloudy.2 mph100%29.80 "Hg3 mi
1:00 AM79 °FLight rain. Partly cloudy.1 mph94%29.83 "Hg3 mi
12:30 AM79 °FLight rain. Partly cloudy.2 mph94%29.83 "Hg4 mi
12:00 AM79 °FLight rain. Partly cloudy.5 mph94%29.86 "Hg5 mi
11:30 PM
Mon, Feb 8
81 °FLight rain. Partly cloudy.1 mph89%29.83 "HgN/A
11:00 PM81 °FPartly cloudy.1 mph89%29.86 "HgN/A
10:30 PM81 °FPartly cloudy.5 mph89%29.83 "HgN/A
10:00 PM81 °FPartly cloudy.5 mph89%29.83 "HgN/A
9:30 PM81 °FPartly cloudy.7 mph89%29.83 "HgN/A
9:00 PM81 °FPartly cloudy.5 mph89%29.83 "HgN/A
8:30 PM79 °FPartly cloudy.6 mph94%29.80 "HgN/A
8:00 PM79 °FLight rain. Partly cloudy.6 mph94%29.80 "Hg5 mi
7:30 PM79 °FLight rain. Partly cloudy.6 mph94%29.77 "Hg5 mi
7:00 PM81 °FPartly cloudy.7 mph89%29.77 "HgN/A
6:30 PM81 °FBroken clouds.7 mph89%29.77 "HgN/A
6:00 PM79 °FBroken clouds.5 mph94%29.77 "HgN/A
Weather by CustomWeather, © 2016

See weather overviewHow to use our weather pages